| time (UTC) | temp C | wind direction | speed KPH | gust KPH | rain 1hr cm | rain 24hr cm | rain mn cm | humidity % | barometer mb |
| 20260505101206 | 14 | 0 | 0.0 | 0.0 | 0.00 | 0.00 | 0.00 | 66 | 1012.7 |
| 20260505100205 | 13 | 221 | 0.0 | 3.2 | 0.00 | 0.00 | 0.00 | 67 | 1012.7 |
| 20260505095705 | 13 | 0 | 0.0 | 0.0 | 0.00 | 0.00 | 0.00 | 70 | 1012.6 |
| 20260505094204 | 13 | 235 | 0.0 | 6.4 | 0.00 | 0.00 | 0.00 | 66 | 1012.6 |
| 20260505093203 | 14 | 0 | 0.0 | 0.0 | 0.00 | 0.00 | 0.00 | 67 | 1012.6 |
| 20260505092702 | 14 | 236 | 0.0 | 3.2 | 0.00 | 0.00 | 0.00 | 67 | 1012.7 |
| 20260505092202 | 14 | 266 | 0.0 | 6.4 | 0.00 | 0.00 | 0.00 | 69 | 1012.9 |
| 20260505091702 | 14 | 264 | 0.0 | 4.8 | 0.00 | 0.00 | 0.00 | 70 | 1012.8 |
| 20260505085700 | 13 | 0 | 0.0 | 0.0 | 0.00 | 0.00 | 0.00 | 70 | 1012.8 |
| 20260505084700 | 15 | 0 | 0.0 | 0.0 | 0.00 | 0.00 | 0.00 | 70 | 1012.8 |
| 20260505084200 | 14 | 0 | 0.0 | 0.0 | 0.00 | 0.00 | 0.00 | 68 | 1012.8 |
| 20260505083659 | 14 | 0 | 0.0 | 0.0 | 0.00 | 0.00 | 0.00 | 70 | 1012.8 |
| 20260505083159 | 14 | 0 | 0.0 | 0.0 | 0.00 | 0.00 | 0.00 | 68 | 1012.8 |
| 20260505082658 | 14 | 0 | 0.0 | 0.0 | 0.00 | 0.00 | 0.00 | 66 | 1012.7 |
| 20260505075155 | 15 | 262 | 4.8 | 14.5 | 0.00 | 0.00 | 0.00 | 58 | 1012.3 |
| 20260505074653 | 16 | 208 | 3.2 | 9.7 | 0.00 | 0.00 | 0.00 | 57 | 1012.3 |
| 20260505073653 | 15 | 239 | 3.2 | 4.8 | 0.00 | 0.00 | 0.00 | 61 | 1012.3 |
| 20260505073152 | 16 | 238 | 1.6 | 8.0 | 0.00 | 0.00 | 0.00 | 60 | 1012.3 |
| 20260505072652 | 15 | 246 | 3.2 | 11.3 | 0.00 | 0.00 | 0.00 | 58 | 1012.3 |
| 20260505071649 | 16 | 221 | 1.6 | 9.7 | 0.00 | 0.00 | 0.00 | 59 | 1012.4 |
| 20260505071149 | 16 | 207 | 1.6 | 8.0 | 0.00 | 0.00 | 0.00 | 64 | 1012.3 |
| 20260505070649 | 15 | 187 | 1.6 | 6.4 | 0.00 | 0.00 | 0.00 | 66 | 1012.4 |
| 20260505070149 | 16 | 269 | 3.2 | 11.3 | 0.00 | 0.00 | 0.00 | 64 | 1012.4 |
| 20260505065648 | 15 | 269 | 1.6 | 6.4 | 0.00 | 0.00 | 0.00 | 66 | 1012.4 |
| 20260505065223 | 15 | 236 | 0.0 | 4.8 | 0.00 | 0.00 | 0.00 | 62 | 1012.4 |
| 20260505065147 | 15 | 236 | 0.0 | 4.8 | 0.00 | 0.00 | 0.00 | 62 | 1012.4 |
| 20260505064647 | 16 | 266 | 1.6 | 8.0 | 0.00 | 0.00 | 0.00 | 64 | 1012.4 |
| 20260505064147 | 15 | 262 | 3.2 | 8.0 | 0.00 | 0.00 | 0.00 | 67 | 1012.4 |
| 20260505063647 | 16 | 253 | 0.0 | 4.8 | 0.00 | 0.00 | 0.00 | 65 | 1012.5 |
| 20260505062646 | 16 | 256 | 4.8 | 8.0 | 0.00 | 0.00 | 0.00 | 60 | 1012.6 |
| 20260505062146 | 16 | 278 | 3.2 | 9.7 | 0.00 | 0.00 | 0.00 | 57 | 1012.7 |
| 20260505061145 | 16 | 266 | 4.8 | 9.7 | 0.00 | 0.00 | 0.00 | 57 | 1012.6 |
| 20260505060645 | 16 | 260 | 0.0 | 3.2 | 0.00 | 0.00 | 0.00 | 61 | 1012.6 |
| 20260505060145 | 16 | 274 | 0.0 | 4.8 | 0.00 | 0.00 | 0.00 | 60 | 1012.6 |
| 20260505055644 | 16 | 267 | 1.6 | 6.4 | 0.00 | 0.00 | 0.00 | 60 | 1012.6 |
| 20260505055144 | 16 | 264 | 1.6 | 6.4 | 0.00 | 0.00 | 0.00 | 63 | 1012.5 |
| 20260505054644 | 16 | 248 | 1.6 | 6.4 | 0.00 | 0.00 | 0.00 | 63 | 1012.5 |
| 20260505054143 | 17 | 262 | 1.6 | 8.0 | 0.00 | 0.00 | 0.00 | 59 | 1012.5 |
| 20260505053643 | 16 | 263 | 1.6 | 6.4 | 0.00 | 0.00 | 0.00 | 58 | 1012.5 |
| 20260505053143 | 16 | 233 | 0.0 | 0.0 | 0.00 | 0.00 | 0.00 | 63 | 1012.4 |
| 20260505052643 | 16 | 205 | 0.0 | 3.2 | 0.00 | 0.00 | 0.00 | 63 | 1012.3 |
| 20260505052142 | 16 | 170 | 0.0 | 3.2 | 0.00 | 0.00 | 0.00 | 60 | 1012.3 |
| 20260505051642 | 16 | 208 | 0.0 | 6.4 | 0.00 | 0.00 | 0.00 | 60 | 1012.2 |
| 20260505051142 | 17 | 240 | 1.6 | 6.4 | 0.00 | 0.00 | 0.00 | 57 | 1012.3 |
| 20260505050641 | 17 | 204 | 1.6 | 6.4 | 0.00 | 0.00 | 0.00 | 59 | 1012.2 |
| 20260505050141 | 17 | 264 | 1.6 | 8.0 | 0.00 | 0.00 | 0.00 | 57 | 1012.1 |
| 20260505041639 | 17 | 211 | 4.8 | 11.3 | 0.00 | 0.00 | 0.00 | 56 | 1011.8 |
| 20260505041138 | 17 | 228 | 3.2 | 11.3 | 0.00 | 0.00 | 0.00 | 56 | 1011.8 |
| 20260505040638 | 17 | 231 | 3.2 | 11.3 | 0.00 | 0.00 | 0.00 | 58 | 1011.7 |
| 20260505040138 | 17 | 249 | 4.8 | 12.9 | 0.00 | 0.00 | 0.00 | 59 | 1011.8 |
| 20260505035638 | 17 | 267 | 1.6 | 9.7 | 0.00 | 0.00 | 0.00 | 58 | 1011.6 |
| 20260505035137 | 17 | 260 | 3.2 | 14.5 | 0.00 | 0.00 | 0.18 | 59 | 1011.6 |
| 20260505034637 | 17 | 269 | 1.6 | 9.7 | 0.00 | 0.00 | 0.18 | 57 | 1011.6 |
| 20260505034137 | 17 | 231 | 3.2 | 6.4 | 0.00 | 0.00 | 0.18 | 57 | 1011.5 |
| 20260505033636 | 17 | 281 | 1.6 | 8.0 | 0.00 | 0.00 | 0.18 | 58 | 1011.4 |
| 20260505033136 | 18 | 219 | 3.2 | 11.3 | 0.00 | 0.00 | 0.18 | 57 | 1011.2 |
| 20260505032636 | 18 | 198 | 4.8 | 12.9 | 0.00 | 0.00 | 0.18 | 56 | 1011.1 |
| 20260505032135 | 18 | 174 | 4.8 | 14.5 | 0.00 | 0.00 | 0.18 | 54 | 1011.1 |
| 20260505031635 | 17 | 204 | 3.2 | 12.9 | 0.00 | 0.00 | 0.18 | 56 | 1011.1 |
| 20260505031135 | 18 | 278 | 1.6 | 14.5 | 0.00 | 0.00 | 0.18 | 56 | 1011.2 |
| 20260505030635 | 18 | 204 | 3.2 | 8.0 | 0.00 | 0.00 | 0.18 | 53 | 1011.2 |
| 20260505030134 | 18 | 229 | 3.2 | 9.7 | 0.00 | 0.00 | 0.18 | 55 | 1011.3 |
| 20260505025634 | 18 | 218 | 3.2 | 14.5 | 0.00 | 0.00 | 0.18 | 53 | 1011.2 |
| 20260505025134 | 18 | 288 | 3.2 | 9.7 | 0.00 | 0.00 | 0.18 | 55 | 1011.1 |
| 20260505024634 | 17 | 194 | 3.2 | 11.3 | 0.00 | 0.00 | 0.18 | 55 | 1011.2 |
| 20260505024133 | 18 | 198 | 4.8 | 9.7 | 0.00 | 0.00 | 0.18 | 54 | 1011.1 |
| 20260505023633 | 18 | 217 | 4.8 | 12.9 | 0.00 | 0.00 | 0.18 | 51 | 1011.1 |
| 20260505023133 | 18 | 236 | 4.8 | 11.3 | 0.00 | 0.00 | 0.18 | 53 | 1011.1 |
| 20260505022632 | 18 | 170 | 3.2 | 11.3 | 0.00 | 0.00 | 0.18 | 53 | 1011.2 |
| 20260505022131 | 18 | 156 | 3.2 | 17.7 | 0.00 | 0.00 | 0.18 | 54 | 1011.1 |
| 20260505021631 | 18 | 253 | 1.6 | 8.0 | 0.00 | 0.00 | 0.18 | 54 | 1011.2 |
| 20260505021131 | 18 | 176 | 3.2 | 12.9 | 0.00 | 0.00 | 0.18 | 54 | 1011.2 |
| 20260505020630 | 18 | 190 | 3.2 | 11.3 | 0.00 | 0.00 | 0.18 | 54 | 1011.2 |
| 20260505020130 | 18 | 207 | 1.6 | 11.3 | 0.00 | 0.00 | 0.18 | 55 | 1011.2 |
| 20260505015630 | 19 | 166 | 1.6 | 9.7 | 0.00 | 0.00 | 0.18 | 54 | 1011.2 |
| 20260505015130 | 19 | 169 | 3.2 | 9.7 | 0.00 | 0.00 | 0.18 | 52 | 1011.1 |
| 20260505014629 | 18 | 255 | 1.6 | 6.4 | 0.00 | 0.00 | 0.18 | 54 | 1011.2 |
| 20260505014129 | 18 | 210 | 1.6 | 9.7 | 0.00 | 0.00 | 0.18 | 54 | 1011.2 |
| 20260505013629 | 19 | 221 | 3.2 | 8.0 | 0.00 | 0.00 | 0.18 | 51 | 1011.2 |
| 20260505012628 | 18 | 181 | 0.0 | 4.8 | 0.00 | 0.00 | 0.18 | 54 | 1011.2 |
| 20260505012128 | 18 | 262 | 0.0 | 6.4 | 0.00 | 0.00 | 0.18 | 57 | 1011.2 |
| 20260505011628 | 18 | 198 | 1.6 | 6.4 | 0.00 | 0.00 | 0.18 | 56 | 1011.1 |
| 20260505010627 | 18 | 204 | 1.6 | 6.4 | 0.00 | 0.00 | 0.18 | 56 | 1011.0 |
| 20260505010127 | 19 | 195 | 0.0 | 4.8 | 0.00 | 0.00 | 0.18 | 52 | 1011.0 |
| 20260505005626 | 18 | 0 | 0.0 | 0.0 | 0.00 | 0.00 | 0.18 | 49 | 1011.0 |
| 20260505005126 | 18 | 0 | 0.0 | 0.0 | 0.00 | 0.00 | 0.18 | 45 | 1010.9 |
| 20260505004626 | 18 | 0 | 0.0 | 0.0 | 0.00 | 0.00 | 0.18 | 44 | 1010.9 |
| 20260505004126 | 19 | 0 | 0.0 | 0.0 | 0.00 | 0.00 | 0.18 | 40 | 1010.9 |
| 20260505003625 | 20 | 285 | 0.0 | 3.2 | 0.00 | 0.00 | 0.18 | 36 | 1010.8 |
| 20260505003125 | 18 | 0 | 0.0 | 0.0 | 0.00 | 0.00 | 0.18 | 42 | 1010.8 |
| 20260505002625 | 19 | 0 | 0.0 | 0.0 | 0.00 | 0.00 | 0.18 | 40 | 1010.6 |
| 20260505002125 | 20 | 0 | 0.0 | 0.0 | 0.00 | 0.00 | 0.18 | 41 | 1010.6 |
| 20260505001624 | 20 | 231 | 0.0 | 1.6 | 0.00 | 0.00 | 0.18 | 38 | 1010.8 |
| 20260505001124 | 20 | 0 | 0.0 | 0.0 | 0.00 | 0.00 | 0.18 | 40 | 1010.8 |
| 20260505000624 | 20 | 264 | 1.6 | 9.7 | 0.00 | 0.00 | 0.18 | 34 | 1010.8 |
| 20260505000123 | 21 | 238 | 3.2 | 12.9 | 0.00 | 0.00 | 0.18 | 29 | 1010.8 |
| 20260504235623 | 22 | 266 | 8.0 | 16.1 | 0.00 | 0.00 | 0.18 | 27 | 1010.8 |
| 20260504235123 | 22 | 269 | 8.0 | 17.7 | 0.00 | 0.00 | 0.18 | 27 | 1010.8 |
| 20260504234622 | 22 | 273 | 8.0 | 16.1 | 0.00 | 0.00 | 0.18 | 24 | 1010.6 |
| 20260504234122 | 22 | 277 | 6.4 | 14.5 | 0.00 | 0.00 | 0.18 | 27 | 1010.6 |
| 20260504233622 | 22 | 264 | 6.4 | 14.5 | 0.00 | 0.00 | 0.18 | 27 | 1010.6 |
| 20260504233122 | 22 | 263 | 4.8 | 16.1 | 0.00 | 0.00 | 0.18 | 29 | 1010.6 |
| 20260504232621 | 22 | 253 | 4.8 | 11.3 | 0.00 | 0.00 | 0.18 | 32 | 1010.8 |
| 20260504232121 | 22 | 271 | 3.2 | 8.0 | 0.00 | 0.00 | 0.18 | 36 | 1010.6 |
| 20260504231621 | 22 | 215 | 1.6 | 8.0 | 0.00 | 0.00 | 0.18 | 38 | 1010.8 |
| 20260504231120 | 22 | 248 | 1.6 | 6.4 | 0.00 | 0.00 | 0.18 | 40 | 1010.8 |
| 20260504230620 | 23 | 260 | 3.2 | 8.0 | 0.00 | 0.00 | 0.18 | 34 | 1010.8 |
| 20260504230120 | 22 | 264 | 3.2 | 9.7 | 0.00 | 0.00 | 0.18 | 39 | 1010.8 |
| 20260504225620 | 22 | 212 | 1.6 | 9.7 | 0.00 | 0.00 | 0.18 | 43 | 1010.6 |
| 20260504225119 | 22 | 228 | 1.6 | 6.4 | 0.00 | 0.00 | 0.18 | 43 | 1010.8 |
| 20260504224619 | 22 | 145 | 3.2 | 9.7 | 0.00 | 0.00 | 0.18 | 39 | 1010.8 |
| 20260504224119 | 23 | 219 | 1.6 | 9.7 | 0.00 | 0.00 | 0.18 | 39 | 1010.8 |
| 20260504223619 | 23 | 233 | 1.6 | 12.9 | 0.00 | 0.00 | 0.18 | 38 | 1010.9 |
| 20260504222617 | 23 | 128 | 1.6 | 9.7 | 0.00 | 0.00 | 0.18 | 39 | 1011.0 |
| 20260504222116 | 23 | 198 | 0.0 | 4.8 | 0.00 | 0.00 | 0.18 | 38 | 1011.0 |
| 20260504221616 | 23 | 173 | 3.2 | 11.3 | 0.00 | 0.00 | 0.18 | 37 | 1011.1 |
| 20260504221116 | 24 | 226 | 1.6 | 4.8 | 0.00 | 0.00 | 0.18 | 37 | 1011.0 |
| 20260504220115 | 24 | 200 | 4.8 | 11.3 | 0.00 | 0.00 | 0.18 | 35 | 1011.0 |
| 20260504215615 | 23 | 152 | 4.8 | 20.9 | 0.00 | 0.00 | 0.18 | 35 | 1011.0 |
| 20260504215115 | 22 | 179 | 6.4 | 16.1 | 0.00 | 0.00 | 0.18 | 35 | 1011.1 |
| 20260504214614 | 23 | 187 | 8.0 | 14.5 | 0.00 | 0.00 | 0.18 | 34 | 1011.1 |
| 20260504214114 | 23 | 250 | 6.4 | 29.0 | 0.00 | 0.00 | 0.18 | 34 | 1011.0 |
| 20260504213614 | 23 | 195 | 6.4 | 16.1 | 0.00 | 0.00 | 0.18 | 35 | 1011.0 |
| 20260504213114 | 24 | 165 | 6.4 | 14.5 | 0.00 | 0.00 | 0.18 | 33 | 1011.0 |
| 20260504212613 | 25 | 236 | 8.0 | 17.7 | 0.00 | 0.00 | 0.18 | 31 | 1010.9 |
| 20260504212113 | 26 | 224 | 6.4 | 14.5 | 0.00 | 0.00 | 0.18 | 32 | 1011.0 |
| 20260504211613 | 26 | 190 | 8.0 | 17.7 | 0.00 | 0.00 | 0.18 | 30 | 1010.9 |
| 20260504211112 | 26 | 169 | 6.4 | 19.3 | 0.00 | 0.00 | 0.18 | 30 | 1011.0 |
| 20260504210612 | 25 | 203 | 9.7 | 30.6 | 0.00 | 0.00 | 0.18 | 31 | 1011.1 |
| 20260504210112 | 26 | 153 | 9.7 | 24.1 | 0.00 | 0.00 | 0.18 | 29 | 1011.1 |
| 20260504205611 | 25 | 256 | 8.0 | 17.7 | 0.00 | 0.00 | 0.18 | 31 | 1011.1 |
| 20260504205111 | 25 | 160 | 9.7 | 27.4 | 0.00 | 0.00 | 0.18 | 32 | 1011.2 |
| 20260504204111 | 24 | 264 | 8.0 | 17.7 | 0.00 | 0.00 | 0.18 | 32 | 1011.4 |
| 20260504203610 | 24 | 173 | 11.3 | 27.4 | 0.00 | 0.00 | 0.18 | 36 | 1011.4 |
| 20260504203110 | 23 | 184 | 8.0 | 20.9 | 0.00 | 0.00 | 0.18 | 37 | 1011.5 |
| 20260504202610 | 25 | 193 | 9.7 | 22.5 | 0.00 | 0.00 | 0.18 | 33 | 1011.6 |
| 20260504202110 | 25 | 166 | 8.0 | 17.7 | 0.00 | 0.00 | 0.18 | 34 | 1011.6 |
| 20260504201609 | 24 | 117 | 6.4 | 22.5 | 0.00 | 0.00 | 0.18 | 33 | 1011.8 |
| 20260504201109 | 25 | 179 | 8.0 | 16.1 | 0.00 | 0.00 | 0.18 | 29 | 1011.9 |
| 20260504200609 | 26 | 155 | 6.4 | 16.1 | 0.00 | 0.00 | 0.18 | 29 | 1011.9 |
| 20260504195608 | 25 | 256 | 9.7 | 24.1 | 0.00 | 0.00 | 0.18 | 33 | 1012.1 |
| 20260504195108 | 24 | 259 | 8.0 | 19.3 | 0.00 | 0.00 | 0.18 | 31 | 1012.2 |
| 20260504194608 | 25 | 274 | 8.0 | 17.7 | 0.00 | 0.00 | 0.18 | 33 | 1012.2 |
| 20260504194107 | 23 | 266 | 6.4 | 16.1 | 0.00 | 0.00 | 0.18 | 39 | 1012.3 |
| 20260504192607 | 25 | 264 | 6.4 | 14.5 | 0.00 | 0.00 | 0.18 | 36 | 1012.4 |
| 20260504191104 | 24 | 277 | 9.7 | 20.9 | 0.00 | 0.00 | 0.18 | 36 | 1012.7 |
| 20260504190603 | 24 | 240 | 9.7 | 24.1 | 0.00 | 0.00 | 0.18 | 39 | 1012.8 |
| 20260504185603 | 23 | 246 | 6.4 | 17.7 | 0.00 | 0.00 | 0.18 | 37 | 1012.8 |
| 20260504185102 | 25 | 271 | 6.4 | 16.1 | 0.00 | 0.00 | 0.18 | 37 | 1012.9 |
| 20260504184602 | 25 | 183 | 8.0 | 20.9 | 0.00 | 0.00 | 0.18 | 38 | 1013.2 |
| 20260504184102 | 23 | 198 | 8.0 | 20.9 | 0.00 | 0.00 | 0.18 | 38 | 1013.2 |
| 20260504183602 | 23 | 173 | 6.4 | 19.3 | 0.00 | 0.00 | 0.18 | 36 | 1013.3 |
| 20260504183102 | 23 | 278 | 11.3 | 27.4 | 0.00 | 0.00 | 0.18 | 43 | 1013.4 |
| 20260504182601 | 22 | 269 | 14.5 | 27.4 | 0.00 | 0.00 | 0.18 | 37 | 1013.4 |
| 20260504182101 | 23 | 253 | 8.0 | 19.3 | 0.00 | 0.00 | 0.18 | 38 | 1013.5 |
| 20260504181600 | 22 | 252 | 9.7 | 22.5 | 0.00 | 0.00 | 0.18 | 40 | 1013.7 |
| 20260504181100 | 23 | 245 | 6.4 | 19.3 | 0.00 | 0.00 | 0.18 | 41 | 1013.6 |
| 20260504180600 | 22 | 260 | 11.3 | 29.0 | 0.00 | 0.00 | 0.18 | 42 | 1013.8 |
| 20260504180059 | 22 | 267 | 8.0 | 14.5 | 0.00 | 0.00 | 0.18 | 39 | 1013.7 |
| 20260504175558 | 22 | 242 | 9.7 | 22.5 | 0.00 | 0.00 | 0.18 | 43 | 1013.8 |
| 20260504175058 | 22 | 256 | 12.9 | 27.4 | 0.00 | 0.00 | 0.18 | 43 | 1013.9 |
| 20260504174558 | 22 | 217 | 9.7 | 20.9 | 0.00 | 0.00 | 0.18 | 38 | 1014.0 |
| 20260504174058 | 23 | 170 | 6.4 | 17.7 | 0.00 | 0.00 | 0.18 | 46 | 1013.8 |
| 20260504172557 | 22 | 191 | 8.0 | 17.7 | 0.00 | 0.00 | 0.18 | 43 | 1014.2 |
| 20260504171556 | 21 | 201 | 9.7 | 19.3 | 0.00 | 0.00 | 0.18 | 45 | 1014.2 |
| 20260504171056 | 21 | 243 | 11.3 | 24.1 | 0.00 | 0.00 | 0.18 | 45 | 1014.3 |
| 20260504170556 | 21 | 273 | 11.3 | 22.5 | 0.00 | 0.00 | 0.18 | 42 | 1014.4 |
| 20260504150539 | 16 | 197 | 8.0 | 19.3 | 0.00 | 0.00 | 0.18 | 59 | 1016.0 |
| 20260504141036 | 15 | 172 | 4.8 | 12.9 | 0.00 | 0.00 | 0.18 | 72 | 1016.6 |
| 20260504140535 | 13 | 222 | 3.2 | 9.7 | 0.00 | 0.00 | 0.18 | 74 | 1016.6 |
| 20260504110514 | 8 | 0 | 0.0 | 0.0 | 0.00 | 0.00 | 0.15 | 97 | 1015.1 |